Regional Weather Roundup
Issued by NWS

Home | Current Version | Previous Version | Graphics & Text | Print | Product List | Glossary Off
Versions: 1 2 3 4 5 6 7 8 9 10 11 12 13 14 15 16 17 18 19 20 21 22 23 24 25 26 27 28 29 30 31 32 33 34 35 36 37 38 39 40 41 42 43 44 45 46 47 48 49 50

000
ASUS43 KLMK 301402
RWRKY
KENTUCKY REGIONAL WEATHER ROUNDUP
NATIONAL WEATHER SERVICE LOUISVILLE KY
1000 AM EDT TUE JUN 30 2015

NOTE "FAIR" INDICATES FEW OR NO CLOUDS BELOW 12,000 FEET
WITH NO SIGNIFICANT WEATHER AND/OR OBSTRUCTIONS TO VISIBILITY.

KYZ001>023-026-027-061>063-070>075-301500-
WESTERN AND SOUTH CENTRAL KENTUCKY

CITY           SKY/WX    TMP DP  RH WIND       PRES   REMARKS
PADUCAH        SUNNY     77  69  76 W6        29.90S
HENDERSON      SUNNY     73  66  78 SW6       29.89R
OWENSBORO      SUNNY     76  69  79 S7        29.91R
HOPKINSVILLE   MOSUNNY   74  71  88 W6        29.93R
BOWLING GREEN  MOSUNNY   75  68  78 S6        29.93R
GLASGOW        NOT AVBL
$$

KYZ024-025-028>034-038-045-046-053-301500-
NORTH CENTRAL KENTUCKY

CITY           SKY/WX    TMP DP  RH WIND       PRES   REMARKS
LOUISVILLE/SDF CLOUDY    75  65  70 SW5       29.89S
LOUISVILLE/LOU CLOUDY    73  65  75 SW6       29.91R
FORT KNOX      SUNNY     72  67  84 S8        29.90R
$$

KYZ035>037-039>044-047>052-055>060-089>105-301500-
NORTHEAST KENTUCKY

CITY           SKY/WX    TMP DP  RH WIND       PRES   REMARKS
LEXINGTON      MOSUNNY   71  67  87 S8        29.93R
COVINGTON      PTSUNNY   70  66  87 SW7       29.90R
FRANKFORT      PTSUNNY   71  66  84 SW12      29.92R
$$

KYZ054-064>069-076>088-106>120-301500-
SOUTHEAST KENTUCKY

CITY           SKY/WX    TMP DP  RH WIND       PRES   REMARKS
JACKSON        CLOUDY    70  65  84 VRB3      29.97R
LONDON         MOSUNNY   73  63  70 SW8       29.97S
SOMERSET       NOT AVBL
MIDDLESBORO    PTSUNNY   70  65  85 S5        30.01R
MONTICELLO     MOSUNNY   74  70  87 CALM      29.99R
$$




USA.gov is the U.S. government's official web portal to all federal, state and local government web resources and services.